Theta_e
312 312 313 313 313 316 314 313 311 311 312 311 310 310 312 313 312 312 314 315 317 318 319 317 316 317 319 319 317 318 320 318 316 316 314 314 314 314 318 315 315 318 317 316 312 311 305 305 307 311 316 318 318 318 321 320 318 319 321 321 320 321 323
314 315 315 315 315 315 312 309 309 309 309 309 310 310 311 312 314 310 311 314 315 315 318 316 315 316 316 314 313 313 313 313 316 315 315 312 311 312 314 314 315 314 314 315 316 312 309 305 305 307 307 312 315 319 321 323 323 321 321 318 317 320 319
315 314 314 314 313 312 309 307 307 308 308 310 310 310 309 310 310 311 311 312 313 315 315 311 311 311 312 312 312 311 311 311 311 312 310 307 308 309 313 314 311 312 312 310 309 311 311 309 306 307 304 302 302 305 311 316 320 321 321 320 318 318 319
314 314 313 311 311 309 308 307 308 309 309 309 309 309 310 311 311 312 310 311 312 315 313 310 310 311 310 310 310 309 309 308 307 307 307 307 307 308 309 309 310 310 309 305 305 306 305 302 302 302 302 303 303 302 304 307 310 311 313 315 317 318 318
315 314 314 313 311 309 308 308 309 309 308 307 308 309 309 309 310 309 311 309 310 308 310 311 311 310 310 309 308 308 308 307 307 307 305 304 304 305 305 306 305 307 306 306 306 306 304 303 302 301 301 301 301 301 305 306 305 306 307 308 310 311 311
315 315 315 313 311 310 309 309 308 308 307 308 307 308 307 307 309 308 307 308 308 309 309 309 308 308 308 308 308 307 306 305 304 304 303 302 303 303 303 303 304 305 304 305 305 305 305 304 302 299 301 302 301 301 301 303 304 304 306 307 309 309 310
314 315 314 313 311 311 311 309 309 308 307 308 308 308 309 309 309 310 309 308 308 308 308 308 308 308 308 308 308 307 307 305 305 304 303 303 303 302 301 302 302 302 302 305 304 305 303 302 300 300 300 299 300 301 301 301 303 303 305 307 308 308 308
315 315 314 313 312 312 311 309 309 309 309 309 308 309 310 309 309 308 308 307 308 308 309 309 311 309 309 310 309 308 307 307 307 306 303 303 305 303 303 301 303 302 303 304 305 304 305 304 303 302 300 299 297 294 298 299 301 302 303 305 307 307 307
315 315 314 314 313 313 312 310 310 309 310 310 310 311 310 310 309 309 308 307 307 307 307 308 308 308 308 307 306 306 306 310 307 305 303 303 303 303 302 301 302 301 303 303 304 303 304 304 304 303 301 299 296 294 295 295 296 299 303 304 305 306 306
315 314 314 313 314 314 312 311 310 311 311 311 311 312 311 309 309 309 308 307 307 307 307 307 307 306 307 308 307 306 307 307 308 306 304 305 304 303 303 302 301 302 303 303 303 305 305 303 304 302 302 301 299 297 294 293 293 296 300 304 303 304 306
315 315 315 314 314 314 313 312 310 311 311 312 313 314 310 309 310 315 308 307 307 307 308 307 307 306 307 306 306 306 307 307 307 306 306 305 304 305 304 303 302 302 304 302 303 304 305 305 304 303 302 302 300 298 297 295 294 296 299 300 303 302 304
316 315 315 315 314 314 313 312 311 312 312 312 313 313 309 309 310 308 308 307 307 307 307 307 307 306 306 306 306 306 305 305 305 304 304 305 305 305 304 303 303 302 303 301 302 303 304 304 304 302 303 302 302 299 299 297 294 295 301 299 299 302 303
317 316 316 315 315 315 314 314 313 312 312 313 313 313 310 310 310 309 308 309 308 307 307 307 306 306 305 306 306 306 305 304 305 304 304 305 307 304 303 302 301 301 301 301 301 302 302 302 304 302 301 302 301 301 300 298 296 297 299 301 300 302 303
316 316 316 315 316 315 314 315 314 314 313 312 313 313 311 311 311 310 309 310 309 308 308 307 305 306 306 304 305 305 304 305 305 303 304 303 305 302 303 303 302 303 302 300 300 301 301 301 301 301 303 301 301 300 301 299 298 298 298 299 301 302 304
315 316 315 314 316 315 313 315 315 314 313 312 314 313 312 312 312 311 310 310 309 309 308 308 307 306 307 305 304 306 306 305 304 304 303 302 303 305 302 301 303 303 302 301 301 301 302 302 300 299 300 301 299 300 299 299 296 297 296 298 300 302 301
315 315 315 313 315 314 313 314 315 314 313 312 314 314 313 313 313 312 311 311 310 310 309 308 308 307 307 306 305 306 306 304 304 303 302 301 302 302 300 301 302 302 303 300 301 301 302 301 300 300 299 299 299 299 300 299 297 295 295 296 298 298 298
317 316 315 315 315 315 315 314 316 315 314 313 314 314 313 313 313 312 312 311 311 310 310 309 308 308 308 307 305 306 306 304 303 303 304 302 302 302 301 300 301 301 302 300 301 300 300 300 300 300 299 299 297 298 298 297 297 296 295 294 294 297 298
316 316 316 316 315 315 315 315 315 315 315 315 315 314 314 313 313 313 313 312 311 311 311 310 310 309 308 308 307 306 307 305 304 304 305 304 306 302 302 301 301 302 300 300 300 300 299 299 300 298 296 296 296 297 297 296 295 295 293 292 293 295 295
316 317 317 316 315 315 315 314 315 315 316 316 315 315 315 314 314 313 313 313 313 312 312 311 310 310 309 309 309 307 307 306 305 304 305 304 304 303 302 302 302 302 301 300 299 299 298 298 297 294 294 295 295 295 294 293 293 292 291 290 290 291 291
314 315 317 316 316 316 315 315 315 315 315 316 315 315 315 315 315 314 314 315 315 314 314 313 312 310 310 309 309 308 307 306 305 305 305 304 304 304 303 303 302 302 301 300 299 299 297 296 296 294 296 294 294 292 293 292 291 290 290 289 289 289 289
313 314 314 315 316 316 315 314 313 314 315 314 313 314 314 315 314 314 315 314 314 314 314 314 313 312 311 310 309 308 308 307 306 305 305 304 304 304 303 303 303 302 302 301 300 298 296 294 293 291 294 294 293 291 291 291 290 289 289 289 288 288 289
313 314 314 315 314 314 315 315 315 313 314 314 313 313 313 313 312 313 312 312 313 312 313 313 314 313 312 311 310 309 308 308 307 306 305 304 304 303 302 303 302 301 304 305 302 301 299 297 293 290 292 293 292 290 290 289 290 289 289 289 289 289 288
312 313 312 312 312 313 313 313 314 314 314 314 313 311 310 310 309 309 310 311 312 311 310 312 312 308 308 313 312 311 310 309 308 307 306 305 303 302 302 302 304 308 307 304 300 296 295 297 298 295 291 291 292 290 290 290 288 289 290 289 288 288 288
310 310 311 310 309 311 312 312 312 313 312 311 311 308 309 310 308 308 309 307 308 311 313 315 307 302 300 303 311 311 310 309 309 308 306 305 303 302 301 301 302 305 303 301 297 294 293 294 294 294 295 296 296 293 291 290 288 288 290 289 289 288 287
307 307 307 308 309 309 310 311 311 309 308 308 308 308 308 308 308 307 308 307 307 309 309 309 304 302 299 298 303 311 310 309 309 307 307 306 304 303 301 300 300 301 297 296 294 294 294 293 293 293 293 293 293 294 295 292 291 289 288 288 287 288 287
302 301 302 305 304 305 306 307 307 307 307 308 308 308 309 308 308 308 307 308 307 307 308 297 297 300 300 298 297 303 310 309 308 307 306 306 304 301 300 300 300 301 300 303 300 294 294 293 293 292 292 292 292 291 290 290 292 293 290 288 288 287 288
299 300 300 300 300 301 302 304 303 303 305 305 307 308 307 307 308 307 305 306 303 298 297 294 296 297 298 296 296 298 307 307 307 305 304 303 302 300 300 300 301 301 301 301 299 297 296 295 293 292 292 291 292 294 292 291 290 290 292 291 289 288 289
299 299 299 298 298 298 299 299 301 299 302 304 306 308 308 307 307 305 302 299 296 294 294 292 293 297 296 295 294 295 302 302 302 301 301 302 301 301 300 302 301 301 301 300 301 299 298 296 294 293 292 292 291 290 291 291 291 291 291 290 289 289 289
298 298 298 298 299 299 297 297 299 298 301 300 301 301 302 302 302 300 300 296 293 291 291 292 292 293 293 294 296 300 299 299 299 298 299 299 301 301 300 301 300 300 300 301 299 295 296 296 294 293 292 289 289 289 291 294 293 292 292 290 290 290 290
298 297 298 298 298 297 298 298 298 298 300 298 299 299 300 301 299 300 298 295 292 289 290 291 292 293 293 294 296 298 298 297 297 296 297 298 298 299 299 299 299 298 298 294 291 290 292 294 292 291 290 289 290 290 290 291 292 292 291 291 290 290 290
299 298 297 298 297 295 295 295 296 298 300 299 299 298 299 297 299 299 298 295 293 291 289 292 293 293 294 294 296 296 295 296 295 295 295 296 296 297 298 305 302 295 292 292 290 290 291 292 289 289 288 287 286 285 286 287 290 290 291 291 290 290 290
299 298 298 297 296 296 296 297 296 296 297 298 298 296 296 297 297 296 295 294 298 292 289 291 292 292 293 294 296 295 296 295 294 293 293 293 294 292 291 294 297 294 292 291 289 289 289 290 289 289 288 288 287 285 285 284 285 286 286 287 286 287 288
297 297 297 296 295 297 296 297 297 297 296 295 295 294 295 295 294 293 293 293 293 290 289 289 291 292 293 293 294 295 294 293 291 289 290 293 291 290 289 289 291 289 289 289 289 288 289 289 289 288 287 285 285 284 284 285 287 286 284 285 285 285 287
296 296 295 296 296 296 296 297 296 298 298 294 292 294 294 292 292 291 290 290 289 288 289 288 289 291 292 292 292 292 291 291 290 290 290 291 290 289 289 289 291 290 289 289 288 288 289 289 289 288 286 285 284 287 288 284 286 290 285 285 286 286 286
297 298 297 297 296 296 296 296 295 296 294 293 292 292 291 291 291 290 290 289 288 288 291 291 288 291 291 291 291 291 290 290 291 291 291 291 291 290 290 289 289 289 288 288 288 288 288 288 288 290 286 287 288 287 286 287 286 285 285 285 283 284 285
297 299 298 296 297 296 296 296 296 295 294 292 292 292 291 290 290 289 288 287 286 286 286 289 290 289 290 290 290 290 290 290 291 291 290 290 290 290 290 290 291 290 288 288 288 288 288 288 289 286 288 287 287 287 287 285 284 285 283 283 284 284 284
296 296 295 295 295 296 295 295 295 296 293 293 292 291 289 290 289 288 287 286 286 285 286 286 290 290 289 289 289 289 289 289 290 291 291 290 290 290 290 290 291 289 288 289 289 288 288 288 287 287 288 288 288 288 286 284 284 284 283 284 282 283 284
Wind_Speed
5 6 3 3 2 3 6 4 4 4 5 6 6 5 5 5 4 4 4 4 5 3 3 3 3 3 4 3 3 3 3 2 3 5 4 2 3 1 2 1 2 3 2 3 2 2 2 0 2 3 1 3 2 3 3 3 4 5 6 5 3 5 5
4 5 3 2 3 3 5 4 5 4 5 5 5 5 5 5 4 4 4 5 5 4 4 5 3 4 4 4 4 5 4 4 3 3 4 1 2 3 2 1 2 3 2 2 2 2 1 1 1 0 2 5 2 3 4 3 4 4 4 5 4 4 5
4 3 3 4 4 4 5 4 4 5 6 5 4 4 6 5 5 4 5 5 4 4 4 4 4 5 5 5 4 5 5 6 4 5 4 3 3 2 3 4 2 1 3 3 3 2 2 1 1 1 1 2 3 4 2 2 3 4 3 4 4 4 5
7 6 5 4 3 4 5 4 4 4 4 5 6 4 5 4 4 4 5 4 3 3 4 5 5 5 4 5 4 5 6 7 6 5 5 4 4 5 4 5 5 4 3 2 1 2 1 1 1 2 2 2 0 2 3 4 4 4 4 3 4 4 4
10 8 8 8 6 6 5 6 5 6 4 4 4 5 4 4 4 4 4 4 4 4 4 4 4 4 4 4 5 5 5 4 4 5 5 6 5 6 5 5 5 5 5 4 1 2 3 1 2 0 1 3 2 2 4 4 2 4 5 6 5 5 6
9 8 7 7 6 6 6 6 6 6 6 5 4 5 4 4 5 5 4 4 3 3 4 5 4 4 4 4 5 4 5 5 4 5 6 4 4 6 6 3 5 5 5 2 3 4 3 4 4 1 1 0 0 3 3 2 2 2 3 5 6 6 7
8 8 7 8 6 6 6 7 7 7 7 7 6 5 5 4 4 4 4 4 3 4 4 4 4 4 4 5 4 5 5 3 5 6 6 4 5 4 3 7 5 6 5 4 4 5 4 4 4 2 2 2 1 1 2 3 3 4 4 4 5 7 8
8 8 7 7 7 7 6 6 5 6 7 6 7 5 4 5 4 4 4 4 4 4 4 4 4 4 4 4 4 4 4 4 5 5 5 5 6 5 5 5 6 5 4 3 6 4 4 5 3 1 3 4 4 3 4 2 3 3 2 3 3 7 7
5 7 7 6 6 7 7 7 7 7 7 7 5 5 4 6 5 4 4 4 4 4 4 4 4 5 4 5 4 4 4 3 5 5 4 5 5 5 4 4 6 3 3 3 3 3 3 3 4 3 4 4 4 4 4 4 3 2 2 5 2 5 7
6 8 9 8 8 7 7 6 7 7 7 7 7 5 7 6 6 6 5 4 4 4 4 4 4 4 4 4 5 4 4 3 5 4 4 5 4 4 4 4 4 4 2 2 2 2 1 2 2 2 2 4 4 3 2 4 3 1 3 3 4 3 5
9 9 10 10 8 8 7 6 4 5 7 8 7 6 7 7 6 6 6 4 4 4 4 4 4 4 5 5 4 4 4 4 4 3 4 4 4 4 4 3 3 3 0 2 1 1 1 1 1 2 2 2 3 2 1 1 4 2 2 3 1 2 4
9 9 10 10 9 9 9 7 7 8 6 5 6 6 6 6 6 5 5 4 4 4 4 4 4 4 4 4 3 4 4 4 4 4 4 4 3 4 5 4 3 3 2 3 2 2 1 2 2 0 2 2 3 2 1 1 1 3 1 3 2 2 3
10 10 10 10 10 11 11 10 9 7 9 7 8 9 9 8 8 8 6 6 5 4 4 4 4 5 4 4 4 3 2 3 4 4 3 2 3 3 4 4 4 3 2 3 3 3 3 3 1 1 2 2 2 2 2 1 1 5 2 2 3 4 5
11 11 11 11 11 11 10 10 10 10 7 8 7 8 9 9 9 8 8 6 6 5 5 4 4 4 4 4 4 4 3 3 4 2 3 2 1 3 2 2 2 1 1 4 2 2 3 4 4 3 3 3 4 3 3 1 2 6 3 1 2 3 5
8 10 11 10 11 11 10 10 10 7 10 8 7 8 7 7 7 9 8 8 7 6 5 5 5 5 5 4 4 3 5 4 4 4 2 4 2 2 3 2 0 1 1 3 2 3 3 4 3 4 5 5 6 6 3 3 1 1 5 3 4 4 4
3 9 10 8 9 8 7 8 8 10 10 9 8 8 9 8 9 9 8 8 7 6 6 5 5 5 5 6 6 4 5 5 5 4 4 4 4 3 3 3 1 2 1 2 2 3 4 4 3 5 4 3 4 4 4 3 3 2 4 4 3 5 5
10 10 4 6 8 6 7 8 9 9 10 8 9 7 7 8 7 7 8 8 9 8 7 6 5 5 6 6 6 6 5 4 4 4 5 4 4 4 4 3 2 3 2 2 1 2 3 3 4 3 4 3 3 4 3 4 4 2 1 3 3 3 5
9 9 10 12 6 1 7 8 7 9 8 8 7 7 5 4 6 7 7 7 7 7 8 8 8 7 6 6 6 6 6 5 5 5 5 5 5 5 4 4 4 4 3 3 1 1 2 3 3 4 4 3 4 3 3 4 3 3 3 5 4 2 4
7 7 9 8 4 6 10 3 4 7 8 8 7 7 8 6 6 6 5 6 6 7 6 6 7 8 8 7 6 6 6 6 6 6 5 5 6 5 5 5 4 5 5 4 4 2 3 3 3 4 4 3 3 3 3 3 3 3 3 2 3 5 3
2 4 7 7 7 5 3 5 10 6 1 6 8 7 7 7 6 7 7 6 7 7 6 5 5 5 5 6 7 6 6 6 6 6 6 6 6 6 6 5 5 5 5 5 5 4 4 3 4 4 3 3 3 3 4 3 3 4 4 4 2 2 4
2 2 1 3 4 7 6 1 3 5 7 8 2 5 7 7 6 6 7 6 5 5 6 7 7 7 5 7 7 6 7 7 6 6 5 6 6 6 6 6 6 6 6 5 5 5 5 5 4 4 2 3 3 3 3 3 4 4 5 4 3 4 3
1 1 6 6 5 3 4 9 10 8 6 7 8 5 4 4 4 4 3 3 4 3 4 6 6 7 7 6 5 7 7 7 7 7 6 5 5 6 6 6 6 6 6 7 9 8 7 7 5 4 2 3 3 2 2 2 3 3 3 4 5 3 5
5 4 4 7 8 9 9 6 6 7 9 10 9 4 2 3 3 3 2 1 0 1 3 3 4 9 9 7 7 7 6 7 7 6 7 6 5 5 7 6 5 10 10 10 10 10 10 8 6 5 5 4 3 2 1 0 1 1 2 5 4 4 7
3 4 6 4 4 4 5 5 5 6 6 6 5 4 4 4 4 3 4 3 3 4 4 4 9 10 11 13 9 8 8 8 8 8 8 8 8 7 6 5 5 7 9 8 8 11 10 9 8 8 9 8 7 5 3 1 2 1 1 2 2 3 3
7 6 5 5 4 4 5 6 6 5 3 3 4 2 2 4 2 2 2 3 3 3 4 4 6 7 8 11 11 8 8 8 8 8 8 8 8 8 6 5 4 5 5 6 5 5 6 7 8 8 9 9 9 8 6 5 3 2 2 3 3 4 3
5 4 4 4 3 2 1 0 1 1 3 4 2 2 5 4 4 1 0 0 2 3 2 3 2 2 4 6 9 7 5 6 7 7 8 9 8 6 6 6 5 3 3 7 6 5 5 4 5 6 5 6 6 7 7 5 4 4 3 3 4 4 4
4 3 2 2 2 1 0 1 2 3 3 3 3 4 4 4 3 1 2 4 3 0 1 3 1 3 4 7 9 7 4 2 1 1 1 1 2 4 5 5 5 3 3 3 4 5 4 4 4 3 1 1 2 3 4 5 6 5 3 4 4 5 3
5 4 4 4 3 2 1 1 1 2 3 4 5 5 6 5 4 1 3 3 2 1 3 6 4 3 4 7 6 6 2 3 4 4 4 4 4 4 4 4 3 4 3 3 3 4 4 4 2 1 1 1 1 2 2 3 3 2 1 1 2 3 4
5 4 3 2 2 0 0 1 1 3 1 0 0 1 1 2 3 3 2 2 3 2 2 7 4 2 6 8 9 5 5 5 5 5 5 5 5 5 5 6 4 3 3 2 0 2 0 1 1 1 1 2 3 3 3 3 6 6 5 3 1 0 2
5 5 4 3 1 1 1 1 1 1 1 3 2 1 1 0 3 5 4 3 3 2 2 4 3 6 9 11 8 6 6 6 5 6 6 5 4 4 3 2 3 4 4 4 5 7 6 7 5 5 4 4 4 4 4 3 4 4 3 2 2 3 5
5 5 5 5 4 3 1 1 2 0 0 1 3 3 1 1 1 3 4 4 4 4 2 1 4 7 9 9 8 7 6 6 5 5 4 4 5 6 5 6 5 7 8 6 8 11 10 8 6 4 4 3 3 3 3 2 3 3 5 5 7 7 8
5 5 5 5 5 4 4 4 2 1 1 1 1 1 1 2 2 1 1 4 5 6 4 2 4 8 10 10 8 5 6 6 6 4 5 6 6 5 5 7 10 9 8 8 11 10 10 8 5 3 3 3 2 3 4 2 3 4 5 5 5 5 6
4 5 6 5 4 5 4 2 2 2 0 2 2 2 3 2 3 2 2 3 3 3 5 3 2 7 9 10 9 6 6 7 6 4 4 5 6 5 6 5 7 11 11 11 10 9 7 7 5 3 3 2 0 2 2 1 2 2 3 3 5 4 5
3 3 3 3 3 2 4 4 3 2 1 1 2 4 4 3 4 3 3 3 3 3 3 4 3 6 9 10 10 9 5 6 5 6 6 6 6 6 5 5 4 6 8 7 7 6 6 5 5 3 2 1 1 1 2 2 3 4 3 4 4 4 6
1 1 1 0 1 3 4 2 4 4 2 2 2 4 4 4 4 4 4 3 3 3 4 5 4 6 9 10 10 11 7 4 5 7 7 6 5 5 5 4 3 3 5 6 5 5 4 4 2 1 1 4 4 4 3 2 3 3 5 5 5 5 6
1 1 1 1 0 3 3 2 2 1 2 2 3 4 4 4 4 4 4 4 3 3 3 3 5 5 8 11 11 11 9 6 6 6 7 6 5 6 4 4 3 4 4 4 3 3 3 2 1 1 3 3 4 5 3 2 2 4 4 5 5 6 6
2 1 1 1 2 2 3 3 3 2 2 4 4 5 4 5 5 4 4 3 3 3 2 4 5 7 7 10 10 10 10 10 9 6 6 6 5 5 4 3 2 4 2 1 1 3 3 2 1 2 3 3 2 2 1 2 3 4 4 5 5 6 6
Wind_Direction
146 152 166 183 143 117 97 103 92 78 74 81 80 61 62 67 78 73 70 70 73 70 82 72 89 92 87 60 67 91 89 91 119 137 164 155 145 226 16 39 31 33 44 71 105 151 164 116 319 325 309 316 338 305 295 311 333 330 321 313 303 298 296
127 144 162 160 119 113 107 103 95 91 75 67 72 79 69 76 83 87 76 76 75 72 81 81 75 80 90 90 79 75 83 66 82 107 108 155 120 163 103 16 36 36 41 65 77 76 110 109 291 321 313 321 350 316 334 318 295 285 273 264 268 269 273
135 141 154 143 133 132 122 118 105 92 89 76 70 78 82 83 94 92 86 87 93 94 88 93 89 82 82 85 92 104 102 89 72 87 106 117 111 129 143 149 110 56 33 22 25 46 49 85 182 283 299 8 8 299 314 322 293 282 273 275 282 284 288
153 154 147 144 138 127 132 132 120 117 102 106 97 81 88 92 91 101 108 107 104 103 99 91 93 104 101 101 99 89 90 101 100 98 88 76 93 89 83 96 109 122 147 116 81 48 128 112 49 326 312 288 225 328 306 317 322 323 338 350 340 321 301
158 163 165 165 170 157 152 145 136 118 112 106 102 100 88 95 98 90 94 96 103 104 102 112 109 105 107 100 86 86 89 90 96 89 86 80 78 78 73 81 90 93 78 114 167 143 122 150 128 180 317 324 350 271 283 324 309 27 28 34 28 26 21
163 166 168 162 172 162 160 149 145 140 136 114 122 114 127 112 113 108 109 115 109 115 116 102 103 99 92 85 87 83 83 80 86 93 88 87 88 91 95 62 80 66 60 39 96 107 72 110 110 80 289 101 270 309 297 21 331 329 36 34 26 29 25
165 167 168 166 176 172 168 164 160 155 152 153 153 151 163 132 115 126 121 121 124 120 116 117 111 106 102 98 93 87 85 95 84 82 93 90 79 83 91 75 62 73 61 59 78 72 71 68 52 47 335 336 45 314 300 358 319 22 339 12 28 29 23
168 168 168 172 172 171 180 169 169 159 151 166 161 169 151 134 137 124 122 122 130 128 121 112 105 96 92 87 90 96 89 85 83 86 80 84 77 79 75 97 92 74 87 89 85 87 96 94 124 157 101 26 349 11 351 327 338 40 0 298 9 34 24
192 164 161 173 183 175 179 177 178 171 166 163 169 146 163 142 141 124 110 118 115 112 119 123 123 118 113 108 102 99 94 98 93 86 93 84 77 81 97 93 81 81 87 93 97 115 113 139 127 133 109 98 85 349 338 347 351 321 349 14 320 33 20
199 178 173 182 183 180 182 193 181 182 168 166 167 161 158 156 149 143 136 131 108 110 113 126 127 127 127 122 121 114 120 121 114 119 106 88 89 93 82 96 120 122 109 82 59 77 114 92 105 127 131 127 144 100 0 351 288 296 314 353 17 311 9
192 197 176 178 184 177 187 196 192 175 184 177 166 167 158 155 151 146 143 149 143 119 125 133 136 138 130 133 141 145 157 138 118 121 128 124 119 106 105 84 96 83 5 72 43 318 8 46 50 89 112 131 124 128 165 352 293 231 269 307 3 308 338
189 201 187 175 173 184 187 189 188 193 185 175 159 154 154 150 147 145 145 150 147 134 129 137 135 135 131 127 131 136 156 139 132 141 162 132 158 118 115 114 131 117 140 97 52 29 10 13 348 25 99 109 84 121 141 138 4 290 193 328 289 301 317
190 199 193 176 177 188 188 186 190 181 192 184 175 167 164 163 158 157 161 157 162 150 140 151 145 144 140 145 144 144 182 117 116 141 179 159 140 123 130 133 152 147 160 90 59 45 34 9 40 344 5 37 74 101 122 131 205 268 277 256 299 305 334
191 198 196 183 180 190 189 187 187 189 175 192 181 176 171 166 162 162 161 166 169 173 159 162 149 147 150 155 167 164 168 144 144 178 157 154 116 140 122 136 183 173 91 83 80 50 37 20 19 31 45 49 29 32 49 52 325 302 303 288 283 331 319
193 202 196 190 188 187 190 187 187 175 184 190 183 182 179 171 167 163 165 172 177 178 171 171 162 153 156 161 184 182 167 163 168 189 183 177 199 167 134 114 180 168 119 109 80 51 28 37 31 40 34 52 59 38 20 59 312 264 307 323 353 336 342
274 212 199 192 192 179 182 186 182 182 187 186 190 184 180 177 174 172 171 175 175 178 182 182 177 170 173 173 182 194 188 177 175 184 194 208 195 173 146 141 155 147 137 71 34 52 46 54 60 70 53 48 62 42 32 50 61 0 334 318 330 349 357
22 320 258 186 173 175 172 179 183 186 185 183 185 191 183 178 173 178 180 177 177 180 184 188 187 186 184 182 187 193 194 188 186 184 190 204 202 179 184 157 178 162 134 131 62 54 68 84 80 88 75 62 78 56 44 49 55 63 323 346 313 335 347
86 70 33 3 345 188 171 169 181 182 174 181 184 174 182 184 179 178 185 190 187 187 189 187 187 193 194 192 192 193 194 193 194 192 194 196 195 190 182 184 187 172 152 148 196 86 93 78 83 78 68 46 58 57 60 58 53 57 40 3 317 304 352
105 118 126 123 95 16 344 321 196 177 172 168 169 174 172 177 183 187 190 193 193 196 198 198 197 197 195 193 197 198 196 197 199 196 194 193 193 193 184 197 183 168 165 170 190 145 118 115 91 78 73 58 55 50 48 41 56 61 55 14 335 329 3
110 124 129 130 123 109 91 1 336 330 302 160 157 162 171 170 178 179 189 186 195 194 195 201 211 217 210 200 201 200 202 204 205 201 199 193 191 188 188 190 186 177 181 182 163 159 137 116 115 110 112 105 73 61 40 28 25 29 34 16 344 27 329
75 9 26 107 137 140 125 66 325 325 330 322 278 170 169 172 181 184 186 181 181 178 189 200 209 211 210 212 205 208 205 205 206 208 204 200 187 189 189 188 184 184 183 177 162 163 147 144 137 112 133 100 76 64 49 31 29 29 23 16 8 331 344
167 159 198 165 150 140 187 179 182 190 218 242 261 244 201 189 180 210 219 189 185 181 189 208 212 198 196 211 220 219 211 207 206 206 206 200 194 189 188 185 181 177 173 166 162 158 164 156 143 131 152 113 100 89 61 42 44 27 15 12 341 339 340
178 174 190 186 193 183 187 190 185 193 202 220 230 223 176 183 181 187 191 223 110 185 214 228 226 210 198 200 211 222 215 213 210 207 204 199 198 196 189 184 178 165 158 152 154 152 154 152 141 139 159 143 130 118 127 104 25 44 25 358 332 339 336
161 192 203 194 188 186 186 181 187 200 211 223 227 230 208 207 200 174 173 177 199 214 219 220 220 211 211 211 209 213 214 212 205 206 202 192 194 196 197 178 160 153 148 151 153 155 156 154 146 143 151 157 157 150 154 181 229 182 228 242 264 321 288
172 176 171 177 167 172 167 173 182 187 196 234 246 243 248 247 241 204 177 177 201 231 248 265 269 262 234 222 212 208 209 208 206 202 197 195 196 190 171 153 155 154 154 154 150 159 165 166 166 167 170 160 158 162 165 170 202 207 201 230 263 254 245
160 166 173 181 165 141 124 90 307 290 246 229 189 220 240 239 249 232 101 34 248 239 236 26 6 283 239 225 236 232 217 212 203 203 199 202 194 169 154 148 149 151 141 153 154 167 175 183 191 188 163 147 161 173 193 212 215 210 185 209 232 257 234
141 151 121 110 94 80 82 244 251 246 248 277 249 244 249 252 267 209 188 219 219 9 72 338 302 197 217 215 212 209 228 203 186 165 143 97 103 125 135 137 146 158 166 159 161 169 187 194 179 155 132 130 187 213 218 231 237 246 228 216 225 244 263
135 147 147 122 106 108 149 201 217 218 202 212 204 215 225 230 238 174 189 165 103 30 339 327 292 189 185 194 198 189 139 104 109 103 102 110 109 126 136 139 147 146 145 150 160 169 190 204 175 165 178 225 349 16 6 359 346 331 346 335 291 290 303
141 139 103 86 88 66 0 0 310 325 352 45 244 185 132 166 139 129 150 125 118 63 344 358 342 82 107 114 116 106 104 104 99 96 90 93 94 95 101 100 101 121 134 135 61 169 145 146 143 132 71 43 38 36 61 50 69 83 82 90 116 244 265
161 151 135 131 160 206 258 296 308 315 12 351 355 307 220 179 148 153 160 143 108 97 34 19 80 119 116 109 95 99 100 99 100 98 102 104 102 81 62 98 131 112 76 49 42 70 72 94 77 73 65 53 40 30 352 345 18 35 45 17 323 305 298
170 165 152 171 193 226 250 294 280 184 250 329 322 293 357 72 124 165 157 151 152 133 104 55 102 111 112 108 114 114 114 105 102 107 89 66 79 80 49 58 93 91 90 75 76 75 73 81 86 89 89 72 42 7 315 329 336 334 349 347 338 334 333
172 165 172 187 178 183 196 207 217 147 137 142 256 357 52 104 89 63 112 144 149 132 137 140 121 115 113 118 113 115 112 107 102 90 93 74 56 58 54 49 77 99 107 107 93 87 86 90 98 106 112 83 38 340 283 295 314 326 333 338 331 334 323
170 168 181 183 179 187 194 174 208 218 107 91 83 75 94 84 91 69 83 122 106 116 133 125 99 113 111 109 112 109 109 112 113 103 86 98 83 54 59 68 69 87 91 91 91 91 97 104 113 124 107 92 90 302 242 227 265 272 287 287 282 283 283
173 209 185 192 206 224 178 186 193 194 198 80 81 75 80 84 87 59 46 59 92 84 102 109 74 102 103 106 106 103 91 104 117 103 91 80 91 98 85 79 80 93 101 105 108 106 102 106 122 130 133 150 188 227 5 351 301 313 297 288 293 300 295
208 216 234 180 178 234 244 215 189 176 116 107 84 85 92 89 86 69 44 46 58 67 74 92 108 99 103 99 100 105 102 115 130 113 92 94 102 103 115 122 134 149 135 127 132 135 134 136 153 123 191 214 268 315 321 289 290 298 299 302 302 303 300
162 161 110 121 130 267 288 285 261 138 128 88 94 99 102 102 98 85 60 46 50 64 76 82 93 98 100 103 100 98 107 111 100 98 113 114 121 126 134 140 154 166 170 139 138 153 168 202 174 242 271 307 298 294 283 287 293 309 307 307 308 301 294
201 192 209 158 162 212 265 266 267 247 151 125 122 113 104 111 110 119 121 97 71 81 91 108 104 110 106 105 100 92 80 74 79 86 89 103 115 129 132 152 181 198 184 159 188 215 227 220 256 266 249 262 319 1 7 324 313 301 302 303 302 293 288